Regional Weather Roundup
Issued by NWS Cleveland, OH

Home | Current Version | Previous Version | Text Only | Print | Product List | Glossary Off
Versions: 1 2 3 4 5 6 7 8 9 10 11 12 13 14 15 16 17 18 19 20 21 22 23 24 25 26 27 28 29 30 31 32 33 34 35 36 37 38 39 40 41 42 43 44 45 46 47 48 49 50

000
ASUS41 KCLE 300900
RWRCLE
OHIO REGIONAL WEATHER ROUNDUP
NATIONAL WEATHER SERVICE WILMINGTON, OH
500 AM EDT THU MAR 30 2017

NOTE: "FAIR" INDICATES FEW OR NO CLOUDS BELOW 12,000 FEET WITH NO
SIGNIFICANT WEATHER AND/OR OBSTRUCTIONS TO VISIBILITY.

OHZ001>008-015>018-024>027-034-035-043-044-301000-
   NORTHWEST OHIO

CITY           SKY/WX    TMP DP  RH WIND       PRES   REMARKS
DEFIANCE       MOCLDY    42  34  73 E17G26    29.98F
FINDLAY        LGT RAIN  44  35  70 E17       29.99F
TOLEDO EXPRESS CLOUDY    40  35  83 E18       30.03F
TOLEDO EXEC    LGT RAIN  41  36  82 E15       30.06F
LIMA           CLOUDY    44  36  73 E18       29.96F
$$

OHZ009>014-019>023-028>033-038-089-301000-
   NORTHEAST OHIO

CITY           SKY/WX    TMP DP  RH WIND       PRES   REMARKS
CLE-HOPKINS    CLOUDY    49  29  46 E7        30.14R
CLE-LAKEFRONT  CLOUDY    42  36  79 NE7       30.11R
CUY CO. ARPT   NOT AVBL
LORAIN-ELYRIA  CLOUDY    43  33  68 NE10      30.09R
ASHTABULA      CLOUDY    42  30  62 E6        30.14F
AKRON-CANTON   CLOUDY    46  29  51 E15       30.06S
WOOSTER        NOT AVBL
MANSFIELD      CLOUDY    44  32  62 NE10      30.05R
YOUNGSTOWN     CLOUDY    44  29  55 E14       30.11F
$$

OHZ042-051>053-060>062-070>072-077>081-301000-
  SOUTHWEST OHIO

CITY           SKY/WX    TMP DP  RH WIND       PRES   REMARKS
CINC-COVINGTON CLOUDY    53  44  71 E9        29.87F
CINC-LUNKEN    FAIR      52  46  80 N5        29.89F
HAMILTON       FAIR      51  44  77 E7        29.89F
DAYTON         NOT AVBL
WRIGHT-PAT AFB FAIR      50  35  57 E10       29.91F
DAYTON GENERAL MOCLDY    50  39  66 E13G18    29.89F
WILMINGTON     FAIR      48  39  71 E8        29.91F
$$

OHZ036-037-039>041-045>050-054>059-063>069-073>076-082>088-301000-
  CENTRAL AND SOUTHEAST OHIO

CITY           SKY/WX    TMP DP  RH WIND       PRES   REMARKS
COLUMBUS       CLOUDY    50  33  52 NE8       29.97F
OSU AIRPORT    FAIR      47  35  63 NE10      29.96F
BOLTON FIELD   NOT AVBL
RICKENBACK AFB NOT AVBL
NEWARK         MOCLDY    48  32  53 NE6       29.99S
MARION         CLOUDY    45  35  68 E15       30.00F
LANCASTER      CLOUDY    50  36  58 NE6       29.97F
ZANESVILLE     CLOUDY    49  31  49 NE7       30.00F
NEW PHILLY     FAIR      47  31  53 E9        30.05S
$$




USA.gov is the U.S. government's official web portal to all federal, state and local government web resources and services.